Date,TemperatureHighF,TemperatureAvgF,TemperatureLowF,DewpointHighF,DewpointAvgF,DewpointLowF,HumidityHigh,HumidityAvg,HumidityLow,PressureMaxIn,PressureMinIn,WindSpeedMaxMPH,WindSpeedAvgMPH,GustSpeedMaxMPH,PrecipitationSumIn
2013-1-1,50.0,43.4,38.1,42.2,35.1,28.9,78,73,67,30.37,30.11,15,5,15,0.00
2013-1-2,44.2,39.6,35.6,32.0,28.8,26.6,70,65,61,30.43,30.33,12,3,12,0.00
2013-1-3,51.4,45.4,36.1,33.5,30.3,25.8,68,56,47,30.54,30.39,17,3,17,0.00
2013-1-4,54.1,50.2,46.2,35.3,32.7,29.5,55,51,48,30.60,30.43,8,2,8,0.00
2013-1-5,55.0,50.5,46.2,39.5,36.6,33.3,64,59,50,30.43,30.29,13,3,13,0.00
2013-1-6,55.6,49.0,39.7,34.9,31.0,28.1,66,51,38,30.47,30.36,12,3,12,0.00
2013-1-7,58.1,51.4,41.9,38.1,33.0,25.1,54,49,46,30.41,30.17,13,3,13,0.00
2013-1-8,53.4,51.9,50.2,45.1,40.5,33.9,81,66,49,30.18,30.04,13,4,13,0.99
2013-1-9,58.8,55.7,50.7,52.3,50.1,45.1,84,81,79,30.22,30.01,26,8,26,1.43
2013-1-10,60.6,58.4,54.1,53.9,49.2,43.8,82,72,62,30.08,29.99,50,6,50,0.04
2013-1-11,68.9,60.0,51.6,57.8,49.2,42.4,75,67,58,30.04,29.86,24,6,24,0.00
2013-1-12,68.9,56.7,38.1,63.5,49.9,30.9,83,78,72,30.02,29.74,23,6,23,0.78
2013-1-13,42.4,37.3,34.0,30.9,25.0,19.8,75,61,51,30.36,30.01,22,8,22,0.00
2013-1-14,46.9,39.9,31.3,30.3,24.6,18.9,61,54,49,30.42,30.29,17,6,17,0.00
2013-1-15,39.6,37.6,33.3,29.4,25.9,21.8,72,63,52,30.32,30.22,19,6,20,0.08
2013-1-16,48.7,41.1,32.7,28.7,23.7,20.4,61,50,41,30.38,30.24,12,3,12,0.00
2013-1-17,58.3,49.8,40.3,36.4,30.7,24.3,59,48,40,30.58,30.31,14,4,14,0.00
2013-1-18,61.5,52.7,44.2,40.2,34.4,28.8,57,50,44,30.59,30.34,16,4,16,0.00
2013-1-19,64.2,54.5,48.7,47.9,39.3,33.5,64,57,49,30.35,30.22,16,5,16,0.00
2013-1-20,67.6,57.8,48.2,48.9,42.4,35.4,66,57,49,30.30,30.14,12,2,12,0.00
2013-1-21,57.9,51.7,42.3,40.9,34.5,26.2,67,52,46,30.38,30.20,18,4,18,0.00
2013-1-22,64.0,55.5,45.0,46.9,38.8,26.4,58,53,46,30.39,30.25,13,4,13,0.00
2013-1-23,71.8,63.0,54.5,55.9,49.8,42.8,71,62,57,30.35,30.20,20,5,20,0.00
2013-1-24,75.0,67.3,59.4,60.7,55.9,50.0,75,67,59,30.27,30.10,15,4,15,0.00
2013-1-25,66.9,54.4,50.9,56.0,43.6,38.4,77,67,61,30.28,30.10,13,4,13,0.00
2013-1-26,56.3,53.6,49.1,47.4,44.7,38.0,75,72,62,30.30,30.18,14,4,14,0.00
2013-1-27,72.3,64.5,54.5,61.2,55.7,46.0,82,73,64,30.18,30.00,23,7,23,0.00
2013-1-28,76.1,71.8,68.7,64.8,62.4,60.6,77,72,64,30.09,29.93,24,9,24,0.00
2013-1-29,76.3,67.9,57.7,65.1,57.8,37.0,76,70,46,29.93,29.53,25,9,28,0.26
2013-1-30,57.7,49.2,43.9,37.6,29.2,23.7,62,47,36,30.22,29.77,27,9,27,0.00
2013-1-31,66.7,54.8,44.1,35.5,30.2,25.4,50,40,28,30.40,30.16,24,6,24,0.00
2013-2-1,61.3,50.8,37.2,38.5,30.4,18.0,49,46,43,30.48,30.24,19,5,21,0.00
2013-2-2,66.6,59.4,52.0,44.1,39.0,34.6,63,48,35,30.39,30.22,17,4,17,0.00
2013-2-3,68.2,59.3,49.8,40.2,35.8,32.0,52,42,35,30.39,30.07,14,3,14,0.00
2013-2-4,71.2,64.2,58.8,54.9,47.5,34.5,64,55,37,30.07,29.88,18,6,18,0.00
2013-2-5,65.8,63.3,60.4,57.9,54.7,50.4,76,74,63,30.10,29.96,11,4,11,0.00
2013-2-6,62.8,61.3,60.6,55.4,52.9,51.8,77,74,72,30.09,30.05,9,3,9,0.00
2013-2-9,59.7,56.0,53.4,53.2,45.7,40.7,79,68,62,30.18,29.83,21,9,21,0.00
2013-2-10,65.7,61.1,55.6,59.3,39.4,32.0,84,47,30,30.10,29.74,44,5,44,0.86
2013-2-11,58.3,55.6,52.7,39.3,36.1,31.7,56,48,43,30.23,30.08,24,6,24,0.00
2013-2-12,54.1,51.0,44.1,44.1,41.8,37.6,79,71,56,30.12,29.93,19,5,19,0.29
2013-2-13,57.9,50.0,40.3,40.6,37.2,33.3,78,63,49,30.24,30.10,17,4,17,0.00
2013-2-14,67.8,57.8,46.6,43.8,39.5,34.2,63,51,41,30.19,30.07,13,3,13,0.00
2013-2-15,58.3,49.5,46.0,38.1,28.8,21.6,59,45,33,30.46,30.17,20,6,20,0.00
2013-2-16,57.6,49.5,41.9,33.2,28.1,22.7,50,44,38,30.49,30.25,10,3,10,0.00
2013-2-17,68.7,59.4,46.6,43.2,36.1,28.1,53,43,33,30.25,30.00,27,8,27,0.00
2013-2-18,75.7,63.5,54.5,55.7,43.7,31.2,69,50,33,30.20,29.83,28,11,28,0.00
2013-2-19,63.5,56.3,49.3,34.7,31.8,29.5,47,40,33,30.41,30.19,17,7,19,0.00
2013-2-20,57.4,50.7,48.0,38.7,35.8,33.9,63,57,42,30.27,29.88,24,10,24,0.12
2013-2-21,66.4,55.5,48.0,47.6,38.6,33.9,77,55,31,30.01,29.69,24,8,24,0.08
2013-2-22,50.9,44.2,35.4,35.6,26.8,21.7,65,51,44,30.23,30.00,15,5,15,0.00
2013-2-23,58.5,48.1,38.1,38.2,29.0,23.2,55,48,40,30.17,30.00,12,3,12,0.00
2013-2-24,69.8,59.1,45.5,46.3,39.3,29.0,59,48,40,30.02,29.69,22,7,22,0.00
2013-2-25,61.2,54.7,41.2,48.1,37.4,30.0,68,53,38,29.74,29.53,36,11,36,0.00
2013-2-26,57.4,48.6,41.2,35.3,32.5,29.9,68,55,42,29.99,29.73,27,8,27,0.00
2013-2-27,52.3,46.8,40.8,32.8,30.5,27.9,64,53,39,30.20,29.97,18,5,18,0.00
2013-3-10,52.3,49.8,46.9,36.6,32.7,29.8,55,52,49,30.17,30.02,26,9,26,0.00
2013-3-11,58.8,49.7,39.7,31.4,28.0,23.4,62,44,30,30.20,30.08,18,5,18,0.00
2013-3-12,67.8,57.9,47.5,38.2,32.5,27.2,48,39,31,30.38,30.11,50,4,50,0.00
2013-3-13,72.3,61.6,51.6,43.0,37.2,31.9,50,41,34,30.53,30.38,50,4,50,0.00
2013-3-14,77.5,66.2,55.0,49.9,41.5,33.0,49,41,37,30.43,30.24,22,6,22,0.00
2013-3-15,80.8,71.1,60.1,53.5,48.6,44.0,64,46,32,30.25,29.97,28,8,50,0.00
2013-3-16,82.2,72.4,62.2,59.6,54.1,46.7,67,53,43,29.97,29.77,34,10,34,0.00
2013-3-17,74.3,71.4,67.6,59.9,55.4,49.4,66,58,48,29.87,29.75,25,6,25,0.00
2013-3-18,70.5,66.0,60.8,60.0,48.7,40.4,78,55,43,30.09,29.72,22,6,22,0.00
2013-3-19,70.3,63.0,55.4,45.9,40.8,36.5,55,45,37,30.20,30.04,23,7,23,0.00
2013-3-20,70.2,62.7,53.8,38.7,36.2,32.8,49,38,30,30.38,30.11,21,4,21,0.00
2013-3-21,69.4,64.1,57.0,53.4,42.7,33.0,60,46,37,30.12,29.66,24,9,25,0.00
2013-3-22,67.8,55.1,49.6,57.3,45.2,41.8,77,69,56,29.94,29.66,20,6,20,0.00
2013-3-23,56.7,53.6,49.5,47.7,45.5,42.8,78,74,70,29.97,29.75,17,4,17,0.06
2013-3-24,52.9,46.6,39.9,45.5,30.4,21.9,80,55,38,30.26,29.88,25,10,27,0.04
2013-3-25,53.2,45.8,38.5,24.8,22.0,19.3,52,39,28,30.48,30.25,22,6,22,0.00
2013-3-26,63.3,51.0,42.6,34.3,25.4,19.9,43,37,31,30.59,30.38,12,3,12,0.00
2013-3-27,71.6,60.3,48.0,42.9,35.1,25.4,45,39,35,30.40,30.17,23,7,25,0.00
2013-3-28,72.1,65.7,57.4,54.9,49.1,40.0,61,55,42,30.30,30.16,23,7,23,0.00
2013-3-29,77.4,70.3,64.4,59.4,55.5,52.5,67,60,53,30.27,30.09,22,7,22,0.00
2013-3-30,76.8,73.0,62.4,62.9,60.2,52.5,76,64,60,30.18,29.97,22,6,22,0.98
2013-3-31,74.5,69.3,62.4,60.6,56.2,51.3,78,64,52,30.07,29.88,22,5,22,0.14
2013-4-1,79.9,71.1,60.1,55.9,52.5,47.0,63,52,43,30.15,30.02,13,3,13,0.00
2013-4-2,72.3,68.7,59.5,60.4,55.4,43.8,71,63,51,30.10,29.97,30,7,30,0.00
2013-4-3,60.1,58.0,54.0,46.2,45.3,44.1,71,63,57,30.13,30.03,43,6,43,0.27
2013-4-12,73.6,62.9,53.4,48.8,44.8,39.0,61,52,41,30.08,29.97,8,3,10,0.00
2013-4-13,78.4,75.8,70.7,53.1,50.7,48.0,45,41,38,29.98,29.86,22,6,22,0.00
2013-4-14,81.0,72.6,63.3,63.6,56.5,47.2,67,57,45,29.87,29.64,22,7,22,0.00
2013-4-15,74.5,72.5,71.2,62.7,62.1,61.6,74,70,65,29.72,29.70,14,6,22,0.00
2013-4-17,83.8,78.3,77.5,68.7,67.8,65.1,74,70,57,29.74,29.71,25,12,27,0.00
2013-4-18,77.5,59.1,47.8,68.9,46.8,33.3,77,64,51,30.23,29.64,27,5,27,1.33
2013-4-19,62.2,53.7,44.4,37.6,32.4,27.3,62,45,33,30.36,30.21,27,2,27,0.00
2013-4-20,71.8,61.3,52.3,42.4,37.6,33.6,50,42,32,30.29,30.10,21,4,21,0.00
2013-4-21,73.0,66.3,56.3,51.0,46.3,38.3,58,49,40,30.30,30.15,23,3,23,0.00
2013-4-22,66.0,63.4,61.7,48.4,46.0,44.5,54,53,52,30.19,30.13,9,4,9,0.00
2013-4-25,68.2,68.2,68.2,47.1,47.1,47.1,47,47,47,30.37,30.37,0,0,0,0.00
2013-5-2,69.6,46.5,45.7,59.4,36.0,34.7,70,67,64,30.40,30.08,107,6,107,0.02
2013-5-3,65.1,53.2,42.6,35.8,33.2,31.2,67,49,29,30.38,30.10,22,4,22,0.00
2013-5-4,71.4,61.5,53.4,38.8,36.4,31.1,52,40,24,30.11,29.97,18,3,18,0.00
2013-5-5,59.5,54.1,50.7,40.2,37.9,36.6,59,55,46,30.23,30.10,13,3,14,0.00
2013-5-6,75.7,74.3,71.8,53.5,53.0,52.2,52,47,45,30.10,30.07,4,0,4,0.00
2013-5-7,84.0,76.3,65.7,58.0,54.0,50.2,59,47,38,30.15,30.01,12,3,33,0.00
2013-5-8,85.3,77.1,67.8,59.8,56.0,51.4,59,49,39,30.08,29.94,22,6,22,0.00
2013-5-9,77.5,72.4,70.3,64.6,59.7,56.3,79,65,51,30.06,29.95,15,5,18,0.61
2013-5-12,78.3,72.1,63.5,52.4,44.6,42.2,53,38,29,30.35,30.22,109,5,109,0.00
2013-5-13,85.6,75.6,64.2,54.2,48.9,42.5,48,40,32,30.31,30.18,16,4,16,0.00
2013-5-14,86.5,77.8,68.5,61.0,56.0,49.5,62,48,36,30.24,30.06,41,6,41,0.00
2013-5-15,77.7,74.6,72.1,66.4,63.1,59.2,78,67,54,30.13,29.94,50,6,50,0.29
2013-5-16,79.3,78.4,75.9,69.1,68.7,67.6,76,72,71,29.88,29.83,0,0,0,0.00
2013-5-17,89.1,83.2,75.6,72.4,71.1,67.5,76,67,58,29.91,29.88,0,0,0,0.00
2013-5-18,89.4,84.1,75.2,72.3,69.8,66.7,75,63,56,29.98,29.84,114,9,114,0.00
2013-5-19,89.2,80.4,74.7,70.6,66.7,63.7,72,64,53,29.92,29.75,114,7,114,0.00
2013-5-21,67.6,67.6,67.6,60.6,60.6,60.6,78,78,78,29.90,29.90,114,114,114,0.00
2013-5-22,83.1,77.9,64.0,63.9,61.7,57.0,79,58,49,30.03,29.92,10,4,10,0.00
2013-5-23,84.9,79.3,72.5,72.1,68.3,61.6,82,69,62,30.15,29.96,15,5,15,0.00
2013-5-24,86.2,80.5,73.9,71.8,68.9,63.8,74,68,59,30.28,30.08,17,4,17,0.27
2013-5-25,73.9,73.2,72.3,65.5,65.1,64.7,77,76,75,30.25,30.18,20,2,20,0.02
2013-5-26,85.8,83.4,82.2,71.4,71.0,69.4,70,66,61,30.12,30.03,114,64,114,0.00
2013-5-27,83.7,81.3,75.9,69.3,68.4,66.2,74,65,62,30.06,29.99,17,7,20,0.00
2013-5-30,85.8,84.6,76.3,73.0,72.3,69.7,80,66,65,29.86,29.79,57,27,57,0.88
2013-5-31,81.5,79.6,78.6,71.5,71.0,70.2,76,75,71,29.90,29.84,114,114,114,0.34
2013-6-2,82.2,79.8,75.7,60.9,56.6,52.4,55,45,37,30.14,30.02,86,30,86,0.00
2013-6-3,88.5,82.0,69.8,64.7,60.9,57.1,67,50,39,30.08,29.92,86,22,86,0.00
2013-6-4,90.7,82.4,73.0,70.5,66.0,60.7,69,58,49,30.09,29.87,0,0,0,0.00
2013-6-5,90.0,83.7,77.2,71.6,68.7,65.7,71,61,50,30.02,29.83,0,0,0,0.00
2013-6-6,84.0,76.5,72.5,70.3,66.6,64.1,81,72,60,30.02,29.88,0,0,0,0.85
2013-6-7,83.3,75.3,68.5,64.4,60.0,58.0,74,60,44,30.09,29.97,0,0,0,0.00
2013-6-8,88.0,79.8,70.5,64.7,60.8,57.1,65,53,44,30.02,29.87,0,0,0,0.00
2013-6-9,86.5,79.9,71.8,69.3,66.5,61.2,82,65,53,30.03,29.93,0,0,0,0.66
2013-6-10,95.2,84.9,74.8,71.7,67.5,64.8,74,58,39,30.04,29.97,0,0,0,0.00
2013-6-11,93.6,86.4,78.6,73.0,70.2,66.3,74,59,49,30.11,30.00,0,0,0,0.20
2013-6-12,93.0,86.6,79.2,73.3,70.7,69.0,75,60,49,30.15,30.00,0,0,0,0.18
2013-6-13,95.5,87.5,80.2,72.7,69.7,67.3,69,56,43,30.13,29.97,0,0,0,0.35
2013-6-14,94.5,88.0,81.5,72.5,70.1,67.2,64,56,48,30.07,29.96,0,0,0,1.92
2013-6-15,89.4,84.4,77.5,74.7,70.8,65.7,71,64,55,30.08,29.96,0,0,0,0.41
2013-6-16,94.3,84.6,79.2,74.3,71.2,69.4,75,65,47,30.09,29.96,0,0,0,0.04
2013-6-17,85.8,84.7,82.9,75.8,74.0,72.5,72,70,69,30.00,29.94,0,0,0,0.00
2013-6-18,82.9,78.8,75.0,72.6,66.0,-99.9,75,71,71,30.04,29.96,0,-19,0,0.00
2013-6-23,85.5,82.6,81.5,-99.9,-99.9,-99.9,0,0,100,0.00,40.00,0,-999,0,0.00
2013-6-24,102.9,88.2,72.0,69.3,-22.4,-99.9,55,23,45,30.03,29.97,0,-537,0,0.00
2013-6-25,95.5,87.8,77.4,72.0,68.5,-99.9,71,55,41,30.08,29.90,0,-5,0,0.00
2013-6-26,96.1,88.4,79.7,73.7,69.8,65.2,70,55,46,30.05,29.92,0,0,0,0.00
2013-6-27,96.6,89.3,81.9,74.8,70.3,66.4,68,54,42,30.10,29.94,0,0,0,0.00
2013-6-28,99.1,89.7,82.2,73.2,67.8,64.3,60,49,40,30.03,29.89,0,0,0,0.00
2013-6-29,95.5,89.6,81.5,68.3,64.1,61.4,59,44,33,29.98,29.87,0,0,0,0.00
2013-6-30,89.8,84.8,78.6,63.7,60.3,57.0,55,44,36,30.02,29.89,0,0,0,0.00
2013-7-1,86.9,80.9,74.3,61.4,59.2,57.1,58,48,41,30.10,30.01,0,0,0,0.02
2013-7-2,88.0,81.1,73.2,58.3,55.9,54.3,53,43,33,30.16,30.07,0,0,0,0.00
2013-7-3,90.7,82.6,73.2,62.2,57.2,54.9,58,43,32,30.14,30.02,0,0,0,0.00
2013-7-4,94.1,84.6,75.6,65.6,61.5,56.3,58,47,33,30.10,29.97,0,0,0,0.00
2013-7-5,94.8,86.3,73.6,68.2,61.6,-99.9,59,46,35,30.09,29.93,86,-4,86,0.12
2013-7-6,95.7,85.7,72.6,69.2,59.1,-99.9,59,47,35,30.04,29.93,4,0,8,0.00
2013-7-7,98.3,87.9,72.7,71.7,65.7,-99.9,66,51,40,30.09,29.99,5,0,10,0.00
2013-7-8,100.6,86.5,75.5,73.3,66.4,-99.9,69,58,46,30.17,30.06,3,0,11,0.00
2013-7-9,105.4,89.2,74.4,71.2,65.8,-99.9,69,50,36,30.20,30.04,3,0,10,0.00
2013-7-10,100.0,91.3,78.8,71.7,67.4,-99.9,65,49,37,30.14,29.97,3,0,10,0.00
2013-7-11,106.4,89.4,81.5,74.9,67.5,-99.9,61,52,42,30.05,29.97,2,0,5,0.02
2013-7-12,84.9,84.1,83.5,69.4,69.0,68.6,62,60,59,30.02,30.00,0,0,0,0.00
2013-7-14,75.4,74.7,65.8,67.3,65.6,-99.9,77,75,74,30.10,29.99,0,0,1,0.02
2013-7-15,75.9,73.9,63.6,69.4,62.5,-99.9,80,76,74,30.17,30.04,3,0,7,0.14
2013-7-16,88.5,79.1,68.1,73.3,68.3,-99.9,81,74,58,30.30,30.15,4,0,10,0.59
2013-7-17,90.8,81.5,67.4,74.3,69.4,-99.9,83,70,56,30.30,30.21,4,0,11,0.04
2013-7-18,100.7,84.4,67.5,74.2,69.1,-99.9,76,63,54,30.26,30.08,3,0,6,0.00
2013-7-19,100.7,83.2,72.9,73.1,69.4,-99.9,73,66,55,30.12,30.00,4,0,7,0.00
2013-7-20,102.8,83.2,68.8,74.5,67.9,-99.9,78,66,51,30.06,29.92,4,0,8,0.00
2013-7-21,100.3,86.0,70.3,75.4,69.6,-99.9,76,62,49,30.02,29.92,2,0,6,0.00
2013-7-22,102.2,87.4,73.0,75.0,70.1,-99.9,77,61,46,30.06,29.93,4,0,10,0.00
2013-7-23,101.2,88.6,76.3,77.2,69.7,-99.9,73,59,43,30.05,29.89,3,0,10,0.00
2013-7-24,94.4,86.0,73.2,73.1,67.8,-99.9,69,58,47,30.14,29.94,4,0,13,0.00
2013-7-25,100.9,86.2,71.4,75.2,69.6,-99.9,69,61,51,30.13,30.05,4,0,9,0.00
2013-7-26,99.4,83.8,73.8,74.1,54.7,-99.9,77,60,57,30.10,29.98,3,0,10,0.02
2013-7-27,94.6,79.7,68.9,-99.9,-99.9,-99.9,0,0,100,0.00,40.00,4,2,9,0.00
2013-7-28,100.1,81.6,64.5,-99.9,-99.9,-99.9,0,0,100,0.00,40.00,6,2,10,0.00
2013-7-29,97.1,84.2,73.3,-99.9,-99.9,-99.9,0,0,100,0.00,40.00,5,3,14,0.00
2013-7-30,102.6,87.2,74.5,-99.9,-99.9,-99.9,0,0,100,0.00,40.00,4,2,12,0.00
2013-7-31,108.2,89.5,74.5,-99.9,-99.9,-99.9,0,0,100,0.00,40.00,3,1,9,0.00
2013-8-1,109.7,91.0,75.4,-99.9,-99.9,-99.9,0,0,100,0.00,40.00,5,1,14,0.00
2013-8-2,106.9,91.1,76.0,-99.9,-99.9,-99.9,0,0,100,0.00,40.00,4,2,10,0.00
2013-8-3,106.8,91.0,76.0,-99.9,-99.9,-99.9,0,0,100,0.00,40.00,4,2,10,0.00
2013-8-4,106.4,90.5,76.0,-99.9,-99.9,-99.9,0,0,100,0.00,40.00,4,2,10,0.00
2013-8-5,109.1,91.5,77.3,-99.9,-99.9,-99.9,0,0,100,0.00,40.00,4,2,10,0.00
2013-8-6,109.5,92.9,75.8,-99.9,-99.9,-99.9,0,0,100,0.00,40.00,4,2,12,0.00
2013-8-7,111.0,91.2,76.2,-99.9,-99.9,-99.9,0,0,100,0.00,40.00,4,2,13,0.00
2013-8-8,105.5,91.0,76.2,-99.9,-99.9,-99.9,0,0,100,0.00,40.00,4,2,10,0.00
2013-8-9,110.4,90.8,76.4,-99.9,-99.9,-99.9,0,0,100,0.00,40.00,3,2,9,0.00
2013-8-10,105.8,88.6,72.3,-99.9,-99.9,-99.9,0,0,100,0.00,40.00,2,1,9,0.00
2013-8-11,110.1,88.9,73.7,-99.9,-99.9,-99.9,0,0,100,0.00,40.00,8,1,14,0.00
2013-8-12,105.8,88.6,74.2,-99.9,-99.9,-99.9,0,0,100,0.00,40.00,3,2,9,0.00
2013-8-13,106.3,84.4,68.6,-99.9,-99.9,-99.9,0,0,100,0.00,40.00,8,1,23,0.00
2013-8-14,73.1,72.7,72.1,-99.9,-99.9,-99.9,0,0,100,0.00,40.00,2,1,4,0.00
2013-8-20,103.9,92.0,79.5,-99.9,-99.9,-99.9,0,0,100,0.00,40.00,3,2,8,0.00
2013-8-21,100.2,84.7,71.0,-99.9,-99.9,-99.9,0,0,100,0.00,40.00,4,2,10,0.00
2013-8-22,104.9,88.2,72.3,-99.9,-99.9,-99.9,0,0,100,0.00,40.00,4,1,9,0.00
2013-8-23,105.8,88.5,74.4,-99.9,-99.9,-99.9,0,0,100,0.00,40.00,5,2,9,0.00
2013-8-24,104.3,88.5,75.3,-99.9,-99.9,-99.9,0,0,100,0.00,40.00,7,2,13,0.00
2013-8-25,99.1,86.6,72.4,-99.9,-99.9,-99.9,0,0,100,0.00,40.00,7,3,14,0.00
2013-8-26,98.4,84.6,72.3,67.9,-97.6,-99.9,42,1,42,30.16,30.16,7,3,14,0.00
2013-8-27,101.1,81.9,70.9,-99.9,-99.9,-99.9,0,0,100,0.00,40.00,5,2,11,0.00
2013-8-28,105.3,86.0,69.1,-99.9,-99.9,-99.9,0,0,100,0.00,40.00,3,1,8,0.00
2013-8-29,110.5,89.0,71.4,-99.9,-99.9,-99.9,0,0,100,0.00,40.00,3,0,7,0.00
2013-8-30,110.4,91.1,74.8,-99.9,-99.9,-99.9,0,0,100,0.00,40.00,3,1,8,0.00
2013-8-31,111.5,91.6,75.0,-99.9,-99.9,-99.9,0,0,100,0.00,40.00,4,2,8,0.00
2013-9-1,110.2,91.5,72.3,-99.9,-99.9,-99.9,0,0,100,0.00,40.00,3,2,11,0.00
2013-9-2,99.4,80.9,71.4,-99.9,-99.9,-99.9,0,0,100,0.00,40.00,4,1,9,0.00
2013-9-3,105.8,85.8,70.8,-99.9,-99.9,-99.9,0,0,100,0.00,40.00,2,0,6,0.00
2013-9-4,106.7,87.5,72.1,-99.9,-99.9,-99.9,0,0,100,0.00,40.00,6,2,10,0.00
2013-9-5,106.3,87.5,73.2,-99.9,-99.9,-99.9,0,0,100,0.00,40.00,4,2,7,0.00
2013-9-6,106.8,88.0,71.6,-99.9,-99.9,-99.9,0,0,100,0.00,40.00,4,2,12,0.00
2013-9-7,105.8,87.3,73.2,-99.9,-99.9,-99.9,0,0,100,0.00,40.00,5,2,13,0.00
2013-9-8,101.7,85.0,67.5,-99.9,-99.9,-99.9,0,0,100,0.00,40.00,5,2,11,0.00
2013-9-9,99.6,84.4,69.2,-99.9,-99.9,-99.9,0,0,100,0.00,40.00,5,2,12,0.00
2013-9-10,98.5,82.5,71.4,-99.9,-99.9,-99.9,0,0,100,0.00,40.00,6,2,14,0.00
2013-9-11,77.7,75.3,72.5,-99.9,-99.9,-99.9,0,0,100,0.00,40.00,2,1,4,0.00
2013-9-13,105.6,90.0,78.8,-99.9,-99.9,-99.9,0,0,100,0.00,40.00,4,2,9,0.00
2013-9-14,97.7,86.0,76.3,-99.9,-99.9,-99.9,0,0,100,0.00,40.00,5,3,12,0.00
2013-9-15,100.8,83.6,70.3,-99.9,-99.9,-99.9,0,0,100,0.00,40.00,4,2,9,0.00
2013-9-16,103.9,85.9,72.4,-99.9,-99.9,-99.9,0,0,100,0.00,40.00,4,1,9,0.00
2013-9-17,99.5,84.7,73.8,-99.9,-99.9,-99.9,0,0,100,0.00,40.00,4,1,8,0.00
2013-9-18,100.2,85.5,74.6,-99.9,-99.9,-99.9,0,0,100,0.00,40.00,5,2,12,0.00
2013-9-19,92.3,79.8,70.1,-99.9,-99.9,-99.9,0,0,100,0.00,40.00,7,1,17,0.00
2013-9-20,72.2,69.2,65.5,-99.9,-99.9,-99.9,0,0,100,0.00,40.00,2,1,10,0.00
2013-9-21,90.7,71.4,57.0,-99.9,-99.9,-99.9,0,0,100,0.00,40.00,4,1,10,0.00
2013-9-22,91.4,69.3,51.5,-99.9,-99.9,-99.9,0,0,100,0.00,40.00,4,1,9,0.00
2013-9-23,93.9,72.5,54.4,-99.9,-99.9,-99.9,0,0,100,0.00,40.00,5,2,12,0.00
2013-9-24,101.7,78.6,60.0,-99.9,-99.9,-99.9,0,0,100,0.00,40.00,2,1,6,0.00
2013-9-25,105.1,78.3,55.3,-99.9,-99.9,-99.9,0,0,100,0.00,40.00,3,1,6,0.00
2013-9-26,101.5,80.6,63.8,-99.9,-99.9,-99.9,0,0,100,0.00,40.00,6,2,128,0.00
2013-9-27,91.7,77.4,64.4,-99.9,-99.9,-99.9,0,0,100,0.00,40.00,6,3,13,0.00
2013-9-28,91.1,73.3,61.8,-99.9,-99.9,-99.9,0,0,100,0.00,40.00,6,2,16,0.00
2013-9-29,90.6,76.0,59.8,60.2,22.7,-99.9,52,36,41,30.05,29.99,2,0,5,0.00
2013-9-30,94.8,77.1,55.2,64.2,56.0,-99.9,63,51,40,30.01,29.89,3,0,7,0.00
2013-10-1,95.6,81.3,66.5,71.0,65.2,-99.9,76,62,48,30.03,29.92,4,0,10,0.00
2013-10-2,93.5,82.3,70.4,72.1,68.6,-99.9,77,65,55,30.07,29.94,5,0,11,0.00
2013-10-3,93.3,82.7,69.9,73.1,68.9,-99.9,77,66,53,30.02,29.89,5,0,12,0.00
2013-10-4,93.9,79.6,70.2,71.2,67.7,-99.9,77,71,61,30.00,29.94,4,0,12,0.00
2013-10-5,80.8,59.3,55.9,50.4,47.3,-99.9,76,67,55,30.18,30.08,2,0,0,0.00
2013-10-6,79.0,63.4,45.4,49.8,43.3,-99.9,78,53,30,30.20,30.10,2,0,0,0.00
2013-10-7,92.6,69.9,45.1,48.7,42.9,-99.9,61,41,32,30.23,30.13,2,0,0,0.00
2013-10-8,83.9,70.6,46.7,52.4,47.0,-99.9,56,46,37,30.20,30.07,2,0,0,0.00
2013-10-9,90.0,73.4,53.4,59.3,52.8,-99.9,63,51,41,30.16,30.06,2,0,0,0.00
2013-10-10,82.9,75.5,59.2,62.6,57.8,-99.9,67,56,46,30.14,29.97,2,0,0,0.00
2013-10-11,84.6,78.4,71.4,70.1,66.0,59.3,74,66,58,30.04,29.90,0,0,0,0.00
2013-10-12,101.4,80.8,73.4,74.4,69.7,-99.9,78,69,60,30.15,29.96,2,0,0,0.49
2013-10-13,76.8,74.3,64.0,67.6,64.1,-99.9,79,74,68,30.28,30.13,2,0,0,0.37
2013-10-14,74.8,72.2,64.3,70.8,65.3,-99.9,87,83,77,30.21,30.01,2,0,0,30.14
2013-10-15,77.2,68.9,50.5,71.1,62.0,-99.9,87,83,78,30.04,29.90,2,0,0,15.89
2013-10-16,63.7,59.2,55.2,52.6,51.0,47.8,85,75,60,30.05,29.95,0,0,0,29.96
2013-10-17,70.7,62.6,55.2,52.4,48.5,44.9,69,60,49,30.08,29.94,0,0,0,3.80
2013-10-18,68.9,64.2,57.9,55.1,51.9,48.2,71,64,57,30.04,29.85,0,0,0,6.81
2013-10-19,64.2,55.9,46.2,48.0,41.3,37.2,72,59,44,30.16,30.02,0,0,0,15.52
2013-10-20,58.8,55.6,53.4,44.2,41.5,40.6,62,59,55,30.03,29.98,0,0,0,7.16
2013-10-28,68.0,66.6,58.8,-99.9,-99.9,-99.9,0,0,100,0.00,40.00,5,4,11,0.00
2013-10-29,72.7,68.4,64.8,-99.9,-99.9,-99.9,0,0,100,0.00,40.00,6,4,14,0.00
2013-10-30,68.9,64.6,61.2,-99.9,-99.9,-99.9,0,0,100,0.00,40.00,9,4,22,0.00
2013-10-31,82.0,66.1,47.2,-99.9,-99.9,-99.9,0,0,100,0.00,40.00,6,2,12,0.00
2013-11-1,84.4,60.9,43.1,-99.9,-99.9,-99.9,0,0,100,0.00,40.00,5,2,12,0.00
2013-11-2,74.4,56.7,42.3,-99.9,-99.9,-99.9,0,0,100,0.00,40.00,4,2,9,0.00
2013-11-3,72.2,53.3,36.7,-99.9,-99.9,-99.9,0,0,100,0.00,40.00,7,3,16,0.00
2013-11-4,56.0,53.2,48.2,-99.9,-99.9,-99.9,0,0,100,0.00,40.00,6,3,13,0.00
2013-11-5,64.6,60.4,56.0,-99.9,-99.9,-99.9,0,0,100,0.00,40.00,5,3,14,0.00
2013-11-6,65.5,52.5,39.8,-99.9,-99.9,-99.9,0,0,100,0.00,40.00,5,2,10,0.00
2013-11-7,74.0,49.9,32.5,-99.9,-99.9,-99.9,0,0,100,0.00,40.00,2,0,7,0.00
2013-11-8,75.0,53.4,36.3,-99.9,-99.9,-99.9,0,0,100,0.00,40.00,5,1,12,0.00
2013-11-9,71.2,56.7,50.9,-99.9,-99.9,-99.9,0,0,100,0.00,40.00,5,2,12,0.00
2013-11-10,72.0,53.7,44.3,-99.9,-99.9,-99.9,0,0,100,0.00,40.00,4,1,7,0.00
2013-11-11,85.7,58.3,41.0,-99.9,-99.9,-99.9,0,0,100,0.00,40.00,3,0,6,0.00
2013-11-12,56.4,52.2,49.4,-99.9,-99.9,-99.9,0,0,100,0.00,40.00,2,1,5,0.00
2013-11-15,69.6,60.8,58.1,-99.9,-99.9,-99.9,0,0,100,0.00,40.00,4,3,11,0.00
2013-11-16,74.0,65.0,55.6,-99.9,-99.9,-99.9,0,0,100,0.00,40.00,6,4,17,0.00
2013-11-17,94.2,74.7,59.0,-99.9,-99.9,-99.9,0,0,100,0.00,40.00,5,2,13,0.00
2013-11-18,76.9,61.0,50.0,-99.9,-99.9,-99.9,0,0,100,0.00,40.00,6,2,12,0.00
2013-11-19,73.1,58.1,50.6,-99.9,-99.9,-99.9,0,0,100,0.00,40.00,8,4,15,0.00
2013-11-20,64.7,53.4,41.2,-99.9,-99.9,-99.9,0,0,100,0.00,40.00,7,3,14,0.00
2013-11-21,69.3,60.4,40.5,-99.9,-99.9,-99.9,0,0,100,0.00,40.00,8,3,12,0.00
2013-11-22,40.3,33.5,31.6,-99.9,-99.9,-99.9,0,0,100,0.00,40.00,7,4,14,0.00
2013-11-23,38.2,34.1,31.6,-99.9,-99.9,-99.9,0,0,100,0.00,40.00,4,2,9,0.00
2013-11-24,33.2,31.5,28.1,-99.9,-99.9,-99.9,0,0,100,0.00,40.00,4,2,10,0.00
2013-11-25,33.6,31.3,28.4,-99.9,-99.9,-99.9,0,0,100,0.00,40.00,4,1,10,0.00
2013-11-26,54.4,39.0,31.7,-99.9,-99.9,-99.9,0,0,100,0.00,40.00,7,4,15,0.00
2013-11-27,54.2,35.2,24.7,-99.9,-99.9,-99.9,0,0,100,0.00,40.00,4,2,9,0.00
2013-11-28,60.9,36.8,23.1,-99.9,-99.9,-99.9,0,0,100,0.00,40.00,4,1,9,0.00
2013-11-29,65.8,42.8,22.7,-99.9,-99.9,-99.9,0,0,100,0.00,40.00,5,2,9,0.00
2013-11-30,72.2,49.8,34.9,-99.9,-99.9,-99.9,0,0,100,0.00,40.00,5,2,13,0.00
2013-12-1,71.3,55.9,46.2,-99.9,-99.9,-99.9,0,0,100,0.00,40.00,4,2,13,0.00
2013-12-2,77.4,52.2,39.4,-99.9,-99.9,-99.9,0,0,100,0.00,40.00,4,1,7,0.00
2013-12-3,82.3,54.9,36.5,-99.9,-99.9,-99.9,0,0,100,0.00,40.00,3,1,7,0.00
2013-12-4,86.9,61.2,46.3,-99.9,-99.9,-99.9,0,0,100,0.00,40.00,4,2,10,0.00
2013-12-5,45.8,32.2,26.4,-99.9,-99.9,-99.9,0,0,100,0.00,40.00,1,1,0,0.00
2013-12-6,29.5,25.7,19.0,-99.9,-99.9,-99.9,0,0,100,0.00,40.00,1,0,0,0.00
2013-12-7,23.8,20.0,15.7,-99.9,-99.9,-99.9,0,0,100,0.00,40.00,3,1,5,0.00
2013-12-8,31.5,27.4,22.8,-99.9,-99.9,-99.9,0,0,100,0.00,40.00,2,0,4,0.00
2013-12-9,29.7,28.3,23.1,-99.9,-99.9,-99.9,0,0,100,0.00,40.00,5,2,8,0.00
2013-12-10,45.7,27.4,15.8,-99.9,-99.9,-99.9,0,0,100,0.00,40.00,4,1,7,0.00
2013-12-11,49.7,32.3,19.2,-99.9,-99.9,-99.9,0,0,100,0.00,40.00,4,1,7,0.00
2013-12-12,29.2,25.7,23.0,-99.9,-99.9,-99.9,0,0,100,0.00,40.00,2,1,5,0.00
2013-12-13,42.4,39.1,31.4,-99.9,-99.9,-99.9,0,0,100,0.00,40.00,6,3,12,0.00
2013-12-14,42.9,37.7,30.1,-99.9,-99.9,-99.9,0,0,100,0.00,40.00,8,4,18,0.00
2013-12-15,66.0,42.8,24.8,-99.9,-99.9,-99.9,0,0,100,0.00,40.00,4,2,8,0.00
2013-12-16,74.0,48.7,31.5,-99.9,-99.9,-99.9,0,0,100,0.00,40.00,5,2,10,0.00
2013-12-17,81.5,51.0,30.0,-99.9,-99.9,-99.9,0,0,100,0.00,40.00,3,1,6,0.00
2013-12-18,74.4,50.8,33.4,-99.9,-99.9,-99.9,0,0,100,0.00,40.00,7,2,17,0.00
2013-12-19,69.1,57.9,47.9,-99.9,-99.9,-99.9,0,0,100,0.00,40.00,8,4,23,0.00
2013-12-20,68.2,54.3,32.0,-99.9,-99.9,-99.9,0,0,100,0.00,40.00,9,4,16,0.00
2013-12-21,50.9,40.1,31.8,-99.9,-99.9,-99.9,0,0,100,0.00,40.00,6,2,10,0.00
2013-12-22,43.4,33.9,25.7,-99.9,-99.9,-99.9,0,0,100,0.00,40.00,10,5,16,0.00
2013-12-23,55.6,33.4,19.3,-99.9,-99.9,-99.9,0,0,100,0.00,40.00,4,1,9,0.00
2013-12-24,54.9,36.1,19.2,-99.9,-99.9,-99.9,0,0,100,0.00,40.00,6,3,14,0.00
2013-12-25,66.6,42.2,28.4,-99.9,-99.9,-99.9,0,0,100,0.00,40.00,7,3,11,0.00
2013-12-26,62.0,40.0,26.7,-99.9,-99.9,-99.9,0,0,100,0.00,40.00,4,1,7,0.00
2013-12-27,66.1,43.6,28.2,-99.9,-99.9,-99.9,0,0,100,0.00,40.00,4,1,8,0.00
2013-12-28,66.4,47.1,30.2,-99.9,-99.9,-99.9,0,0,100,0.00,40.00,6,2,11,0.00
2013-12-29,49.2,36.5,28.0,-99.9,-99.9,-99.9,0,0,100,0.00,40.00,9,4,17,0.00
2013-12-30,49.6,33.6,25.0,-99.9,-99.9,-99.9,0,0,100,0.00,40.00,6,3,12,0.00
2013-12-31,59.8,39.6,22.5,-99.9,-99.9,-99.9,0,0,100,0.00,40.00,5,2,12,0.00
2014-1-1,68.2,46.8,29.8,-99.9,-99.9,-99.9,0,0,100,0.00,40.00,12,5,23,0.00
2014-1-2,45.0,30.3,20.9,-99.9,-99.9,-99.9,0,0,100,0.00,40.00,11,5,18,0.00